Temperature
21 21 20 20 20 20 20 20 20 20 19 19 19 19 19 19 19 18 18 18 18 18 18 18 18 18 18 18 18 18 18 18 18 18 18 18 18 18 18 17 17 17 17
21 20 20 20 20 19 19 20 20 19 19 19 19 19 19 18 18 18 18 18 18 18 18 18 18 18 18 18 18 18 18 18 18 18 18 18 18 18 17 17 17 17 17
21 20 20 20 19 19 19 19 19 19 19 19 19 19 18 18 18 18 18 18 18 18 18 17 17 17 17 17 18 17 17 17 17 17 17 17 17 17 17 17 17 16 16
21 20 20 20 20 19 19 19 19 19 19 19 18 18 18 18 18 18 18 18 18 18 17 17 17 17 17 17 17 17 17 17 17 17 17 17 17 17 17 17 16 16 16
21 20 20 20 20 19 19 19 19 19 18 18 18 18 18 18 18 18 18 17 17 17 17 17 17 17 17 17 17 17 17 17 17 16 16 17 16 16 16 16 16 16 16
21 20 20 20 19 19 19 19 19 19 18 18 18 18 18 18 18 18 18 17 17 17 17 17 17 17 17 17 17 16 16 16 16 16 16 16 16 16 16 16 16 15 15
20 20 20 19 19 19 19 18 18 18 18 18 18 18 18 18 18 18 18 17 17 17 17 17 16 16 16 16 16 16 16 16 16 16 16 16 15 16 15 15 15 15 15
20 20 20 19 19 19 18 18 18 18 18 18 18 18 18 18 18 18 18 17 17 17 16 16 16 16 16 16 16 16 16 16 16 15 15 15 15 15 15 15 15 15 15
20 19 19 19 19 18 18 18 18 18 18 18 18 18 18 18 18 17 17 17 17 17 16 16 16 16 16 16 16 15 15 15 15 15 15 15 15 15 15 15 15 14 14
20 19 19 19 18 18 18 18 18 18 18 18 17 17 17 17 17 17 17 16 16 16 16 16 16 16 15 15 15 15 15 15 15 15 15 15 15 15 15 15 15 14 14
19 19 19 18 18 18 18 18 18 17 17 17 17 17 17 17 17 17 17 16 16 16 16 16 16 16 15 15 15 15 15 15 14 14 14 15 14 14 15 15 14 14 14
19 18 18 18 18 18 18 17 17 17 17 17 17 17 17 17 17 17 17 16 16 16 16 16 15 15 15 15 15 15 14 14 14 14 14 14 14 14 14 14 14 14 14
18 18 18 18 18 18 17 17 17 17 17 17 17 17 17 16 16 16 16 16 16 16 15 15 15 15 15 15 15 15 14 14 14 14 14 14 14 14 14 14 13 13 13
18 18 18 18 17 17 17 17 17 17 17 17 16 16 16 16 16 16 16 16 15 15 15 15 15 15 15 15 14 14 14 14 14 14 14 13 13 13 13 13 13 13 13
17 17 17 17 17 17 17 17 17 17 17 17 17 16 16 16 16 16 16 15 15 15 15 15 14 14 14 14 14 14 14 14 14 14 13 13 13 13 13 13 12 12 12
17 17 17 17 17 17 17 17 17 17 16 16 16 16 16 16 16 16 15 15 15 15 14 14 14 14 14 14 14 14 14 13 13 13 13 13 13 12 12 12 12 12 12
17 17 16 17 17 17 16 17 16 16 16 16 16 16 16 16 16 15 15 15 15 14 14 14 14 14 14 14 14 13 13 13 13 13 12 12 12 12 12 12 12 12 12
16 16 16 16 16 16 16 16 16 16 16 16 16 16 16 15 15 15 15 14 14 14 14 14 14 14 13 13 13 13 13 13 12 12 12 12 12 12 12 12 11 11 11
16 16 16 16 16 16 16 16 16 16 16 15 15 15 15 15 15 15 14 14 14 13 13 13 13 13 13 13 13 12 12 12 12 12 11 11 11 11 11 11 11 11 11
15 16 16 16 16 16 16 16 16 16 16 15 15 15 15 14 14 14 14 13 13 13 13 13 13 13 12 12 12 12 12 11 11 11 11 11 11 10 10 10 10 10 10
15 15 15 15 16 16 15 15 15 15 15 15 14 14 14 14 14 13 13 13 13 13 12 12 12 12 12 11 11 11 11 11 10 10 10 10 10 10 10 10 10 10 9
14 15 15 15 15 15 15 15 14 14 14 14 14 14 14 13 13 13 13 12 12 12 12 11 11 11 11 10 10 10 10 10 10 9 9 9 9 9 9 9 9 9 9
14 14 14 14 14 14 14 14 14 14 14 14 13 13 13 13 12 12 12 12 12 12 11 11 11 10 10 10 10 10 9 9 9 9 9 9 9 9 8 8 8 8 9
13 14 14 14 14 14 14 14 13 13 13 13 13 13 12 12 12 12 11 11 11 11 11 10 10 10 10 9 9 9 9 9 9 9 9 8 8 8 8 8 8 8 8
13 13 13 13 13 13 13 13 13 13 13 13 12 12 12 12 11 11 11 11 11 10 10 10 10 9 9 9 9 9 9 8 8 8 8 8 8 8 7 8 7 7 8
13 13 13 13 13 13 13 12 12 12 12 12 12 12 11 11 11 10 10 10 10 10 9 9 9 9 9 8 8 8 8 8 8 8 7 7 7 7 7 7 7 7 7
Wind_Speed
7 5 4 5 5 5 4 3 3 3 3 3 2 3 3 3 3 3 4 3 3 3 4 3 3 3 3 3 3 2 2 2 3 3 2 1 1 1 2 4 6 7 8
6 6 5 4 4 4 4 4 3 4 4 4 3 3 4 4 3 4 4 3 3 4 3 3 3 3 2 3 3 3 3 3 3 4 3 2 3 3 4 5 5 7 6
6 6 5 4 4 4 4 4 4 4 4 3 4 4 4 3 3 4 4 4 4 4 3 4 4 3 3 3 3 3 3 4 2 3 3 2 2 2 2 3 4 3 6
5 5 5 5 5 5 4 4 4 4 4 4 4 4 4 3 3 4 4 4 4 4 4 4 4 3 3 4 4 3 3 3 3 3 3 3 2 2 2 3 3 3 4
4 5 5 5 5 5 5 5 4 4 5 4 4 4 3 4 4 4 4 5 4 5 5 5 4 3 3 3 3 2 3 3 3 3 3 2 2 2 2 2 3 3 4
4 4 4 4 5 5 5 5 4 4 4 4 4 4 4 4 3 3 3 4 4 5 5 4 4 3 3 3 3 2 3 3 4 4 4 3 3 3 3 3 3 3 3
4 4 4 4 4 4 5 4 4 5 4 4 4 4 4 3 2 2 3 4 5 5 5 4 5 4 2 2 2 3 4 5 5 4 4 4 4 4 3 3 3 4 5
3 3 3 3 4 3 4 4 4 3 3 4 4 4 4 4 4 3 4 5 5 4 4 4 3 3 2 2 2 3 3 3 5 4 4 4 4 3 3 4 5 5 5
3 3 2 3 3 3 3 3 3 3 3 4 4 4 4 3 4 4 4 4 4 4 4 3 2 2 1 1 1 2 3 4 5 4 4 4 5 5 3 3 4 4 5
3 3 2 2 3 3 3 3 3 3 3 4 4 4 5 4 6 6 6 4 4 3 3 2 2 2 1 2 2 3 4 5 4 4 4 5 6 6 6 4 4 4 4
2 2 2 3 4 3 3 2 2 3 3 5 5 5 5 5 7 8 7 4 4 4 3 2 2 3 4 4 5 4 6 5 4 4 4 4 3 3 3 3 3 4 4
1 2 2 3 4 4 3 3 4 4 5 5 5 4 3 4 4 6 9 9 6 4 4 2 1 2 5 6 6 6 6 4 4 4 4 4 3 3 3 2 3 4 5
1 2 2 3 3 3 4 5 5 4 4 4 3 3 3 2 3 5 7 8 8 5 3 3 3 4 5 5 8 7 5 4 4 4 4 4 3 3 2 2 3 5 5
2 3 3 4 4 3 3 4 4 4 4 3 2 3 3 2 2 2 3 4 5 5 4 5 6 7 7 6 5 5 5 5 5 4 4 4 3 3 3 3 3 3 3
3 4 4 4 4 3 3 3 3 3 4 4 3 3 3 3 2 3 3 3 3 4 3 4 4 3 4 4 4 4 4 4 5 5 4 4 3 3 3 2 2 3 3
3 3 4 4 3 3 3 3 1 1 3 5 4 3 2 2 1 3 4 4 4 4 3 4 4 4 4 4 4 4 3 3 3 3 4 4 4 4 3 2 2 3 3
4 3 4 4 4 4 3 3 3 2 2 3 4 3 3 2 1 2 3 3 4 4 4 5 4 4 4 4 4 4 4 3 3 3 3 4 4 4 4 3 2 3 3
4 4 4 4 4 4 4 5 4 4 4 3 3 4 4 4 4 4 3 1 2 3 4 4 4 3 3 3 3 3 3 2 2 3 3 3 3 3 3 3 3 3 3
4 3 3 4 4 3 3 4 4 3 2 2 2 2 3 4 4 4 3 3 4 4 4 3 3 3 3 3 3 2 3 3 3 3 3 3 3 3 3 4 4 4 4
3 4 4 4 4 4 3 3 3 3 2 1 1 1 1 1 1 1 2 3 3 3 3 3 3 3 3 3 3 2 3 3 3 3 2 3 3 3 4 4 4 4 3
5 4 5 4 4 3 3 3 3 3 3 2 1 0 1 1 2 2 2 3 3 3 3 3 2 2 2 2 2 3 3 3 3 3 3 3 3 3 4 4 4 4 4
5 5 4 4 3 3 3 3 3 3 3 2 2 1 3 2 2 3 2 2 2 2 2 2 3 3 3 3 3 3 3 3 4 4 4 4 3 4 4 4 4 4 5
5 5 4 3 3 3 3 3 3 3 3 2 3 2 1 1 2 2 3 3 2 2 1 1 2 2 2 2 3 3 2 3 3 4 5 5 4 5 5 5 5 5 5
5 4 5 4 3 3 3 2 2 3 3 3 2 2 1 1 2 3 3 2 2 2 2 2 2 3 4 4 4 4 4 4 4 3 4 5 6 6 5 5 5 6 5
5 4 5 5 4 3 4 3 3 3 3 3 2 2 2 1 2 3 3 2 2 2 2 2 2 3 4 5 5 5 6 6 5 5 5 4 6 6 6 6 5 5 5
5 5 5 4 3 3 3 3 3 3 3 3 3 2 2 2 2 3 3 3 3 2 2 2 2 3 4 5 5 6 5 6 6 6 5 5 5 4 5 5 6 5 5
Wind_Direction
181 181 184 184 193 202 203 199 196 209 215 219 213 212 215 219 221 238 245 243 253 260 265 258 262 275 298 303 301 291 289 270 258 271 255 216 194 215 177 193 188 191 201
182 175 184 186 186 201 204 197 197 198 212 213 214 221 230 224 227 235 252 250 251 258 264 275 273 269 281 293 296 293 284 269 261 267 265 242 239 225 209 215 216 215 209
181 177 177 188 195 204 208 197 203 204 210 214 215 224 234 235 233 237 240 248 255 259 262 263 265 271 274 277 284 290 287 284 263 264 265 253 249 246 230 237 243 232 239
176 178 179 191 203 207 205 207 208 211 209 213 223 224 228 233 246 253 250 247 254 259 263 259 258 250 259 274 274 282 291 292 280 273 270 266 264 252 226 241 256 247 253
179 184 190 195 200 208 207 209 209 212 218 211 222 233 232 227 240 248 257 254 252 257 260 259 257 252 264 270 280 303 303 297 295 289 279 284 287 283 267 259 263 262 253
189 190 190 196 199 210 212 209 208 212 220 218 219 225 232 243 231 227 251 270 267 265 269 270 263 240 242 243 271 272 271 280 292 295 293 289 292 300 294 281 279 277 272
190 192 190 194 197 208 220 209 217 220 217 222 219 218 213 221 234 240 258 266 267 264 263 265 277 274 214 241 253 255 264 263 255 269 282 282 283 290 300 292 275 271 270
180 190 193 197 202 197 207 219 214 215 217 225 228 222 212 217 209 216 247 250 259 263 259 249 248 275 268 261 262 273 267 266 254 247 255 266 273 284 272 263 265 263 257
179 185 195 193 200 199 205 215 215 218 226 230 231 228 220 215 211 205 218 246 249 250 246 249 234 235 265 279 257 284 296 285 268 253 249 258 263 273 273 279 273 266 270
186 188 190 205 215 207 213 213 220 221 228 235 236 230 224 213 204 204 206 250 265 263 243 228 209 205 230 234 243 261 269 278 285 285 272 262 256 255 243 233 255 268 275
191 195 198 208 219 206 201 207 216 229 237 238 238 229 219 207 190 196 200 229 262 270 266 249 219 192 218 232 237 248 254 266 277 274 267 259 253 253 238 224 232 244 261
192 208 217 226 240 213 199 210 216 227 237 239 242 243 225 195 182 200 207 221 245 269 275 276 245 214 233 241 245 256 261 267 271 269 270 272 265 256 252 235 228 231 240
224 227 230 235 242 230 213 218 220 223 235 239 240 251 255 218 199 197 205 223 235 245 279 310 297 252 243 247 249 251 252 252 257 263 266 265 259 257 246 235 239 236 240
237 236 232 229 230 233 226 226 224 224 230 241 247 249 249 237 221 204 219 232 243 250 270 283 274 249 250 253 246 238 233 245 250 256 268 269 265 262 258 254 251 239 246
253 246 244 237 234 233 230 245 240 224 213 219 237 243 253 255 234 193 208 230 236 235 245 251 255 251 246 243 246 245 238 234 242 251 263 273 275 273 272 275 275 274 263
266 252 254 252 240 235 228 235 241 241 210 216 226 239 237 238 220 207 221 232 238 221 222 244 250 255 255 255 255 254 247 248 253 258 264 269 273 273 273 269 269 269 272
281 276 270 264 256 244 238 238 235 231 249 245 233 226 224 243 258 256 261 265 248 206 225 252 255 257 261 262 260 263 266 264 257 258 261 264 269 275 277 273 269 274 276
280 277 271 267 261 250 244 245 244 235 230 238 236 226 214 219 228 237 244 299 265 229 246 264 274 274 274 277 276 274 280 283 273 269 272 272 273 278 281 283 275 271 270
286 285 288 288 282 277 269 262 260 260 244 235 222 200 209 216 233 245 216 240 263 268 269 271 275 281 288 288 284 287 295 292 297 296 294 295 296 289 289 293 290 283 272
284 281 282 283 280 282 286 285 284 280 265 253 262 243 163 200 236 227 225 249 264 270 276 282 290 295 295 299 302 295 291 294 296 292 300 304 305 299 286 284 287 287 279
300 285 274 276 281 286 291 288 293 295 283 271 262 159 191 242 256 252 246 250 260 267 276 283 287 290 288 285 294 303 316 329 331 328 320 309 303 297 288 283 284 281 276
307 306 296 294 297 298 289 288 286 279 282 283 275 227 179 227 284 298 295 272 261 268 281 301 301 314 338 339 331 328 337 347 342 333 324 315 311 301 292 287 286 285 279
300 303 304 303 299 292 286 291 290 290 294 302 292 291 205 246 282 301 302 303 298 291 311 321 316 336 353 345 341 351 1 352 333 319 315 309 302 294 291 287 282 284 283
292 297 295 291 291 292 287 286 299 299 291 287 301 304 294 261 277 286 288 302 321 328 328 334 352 0 4 7 12 15 15 355 331 312 306 298 296 291 286 287 287 285 283
290 290 290 296 298 300 303 308 306 296 295 299 305 310 322 319 310 310 308 313 323 325 340 352 10 12 11 12 16 14 6 3 349 333 310 292 289 292 289 285 287 291 286
297 299 303 306 309 318 326 328 325 318 317 321 322 325 320 316 319 321 328 348 345 342 346 5 22 24 16 15 15 9 9 0 343 327 310 290 288 293 299 292 289 287 288
Height
1516 1517 1518 1519 1520 1521 1522 1522 1523 1524 1524 1525 1525 1526 1526 1527 1527 1527 1527 1527 1527 1527 1527 1527 1527 1526 1526 1526 1526 1525 1525 1524 1523 1523 1523 1523 1522 1522 1521 1520 1520 1519 1518
1513 1515 1515 1517 1518 1518 1519 1520 1521 1521 1522 1522 1523 1523 1524 1524 1525 1525 1525 1525 1525 1525 1525 1525 1524 1524 1524 1523 1523 1522 1522 1522 1521 1520 1519 1519 1519 1518 1518 1517 1516 1516 1515
1512 1513 1513 1514 1515 1516 1517 1517 1518 1519 1519 1520 1520 1521 1521 1521 1522 1522 1522 1522 1522 1522 1522 1522 1522 1521 1521 1520 1519 1519 1518 1518 1518 1517 1516 1516 1516 1515 1515 1514 1514 1513 1512
1510 1510 1511 1512 1513 1514 1514 1515 1515 1516 1517 1517 1517 1518 1518 1519 1519 1519 1519 1519 1519 1519 1519 1519 1519 1518 1517 1517 1516 1516 1515 1515 1514 1514 1513 1513 1513 1512 1511 1511 1510 1509 1509
1508 1508 1509 1510 1510 1511 1512 1512 1513 1513 1514 1514 1515 1515 1516 1516 1516 1516 1516 1516 1516 1516 1516 1515 1515 1515 1514 1514 1513 1512 1512 1511 1511 1510 1510 1509 1509 1508 1508 1507 1506 1505 1505
1505 1506 1507 1507 1508 1509 1509 1509 1510 1510 1511 1511 1511 1512 1513 1513 1513 1513 1513 1513 1513 1513 1512 1512 1512 1511 1510 1510 1509 1509 1509 1508 1507 1507 1506 1506 1505 1505 1504 1504 1503 1502 1501
1502 1503 1504 1505 1505 1506 1507 1507 1507 1507 1507 1508 1508 1509 1509 1509 1510 1510 1510 1510 1509 1509 1509 1508 1508 1508 1507 1506 1505 1505 1505 1504 1504 1504 1503 1502 1501 1501 1500 1499 1499 1498 1497
1499 1501 1501 1502 1503 1503 1503 1504 1504 1504 1504 1505 1505 1506 1506 1506 1506 1506 1506 1506 1505 1505 1505 1505 1505 1504 1503 1502 1502 1501 1501 1500 1500 1500 1499 1499 1498 1497 1497 1496 1495 1494 1493
1497 1498 1499 1499 1500 1501 1501 1501 1501 1502 1502 1502 1503 1503 1503 1503 1503 1502 1502 1502 1502 1501 1502 1502 1501 1500 1499 1499 1498 1497 1497 1496 1497 1496 1496 1495 1494 1494 1493 1492 1491 1491 1489
1495 1495 1496 1497 1498 1498 1498 1499 1499 1499 1499 1500 1500 1500 1500 1499 1499 1499 1500 1499 1499 1498 1498 1498 1498 1497 1496 1496 1495 1494 1494 1493 1493 1492 1491 1491 1490 1490 1489 1488 1487 1487 1486
1493 1494 1494 1494 1495 1495 1496 1496 1497 1497 1497 1497 1497 1497 1497 1496 1497 1497 1496 1496 1496 1495 1495 1495 1494 1494 1493 1493 1492 1492 1491 1491 1490 1489 1488 1487 1486 1486 1485 1484 1484 1483 1482
1490 1491 1491 1492 1492 1493 1493 1493 1494 1494 1495 1495 1495 1495 1494 1494 1494 1493 1493 1493 1493 1492 1492 1492 1491 1490 1490 1489 1489 1488 1488 1487 1486 1486 1485 1484 1483 1482 1481 1480 1480 1479 1478
1488 1488 1489 1489 1490 1490 1490 1490 1491 1491 1491 1492 1492 1492 1492 1491 1491 1490 1490 1489 1489 1488 1488 1488 1487 1486 1486 1485 1485 1484 1484 1483 1483 1482 1481 1480 1479 1479 1477 1476 1475 1475 1474
1486 1486 1486 1486 1487 1488 1488 1488 1488 1488 1488 1488 1489 1489 1489 1489 1488 1486 1485 1485 1485 1485 1484 1484 1483 1483 1482 1481 1481 1480 1479 1479 1479 1478 1477 1477 1476 1475 1474 1473 1471 1470 1469
1483 1483 1484 1484 1484 1484 1485 1485 1485 1485 1485 1485 1485 1486 1485 1485 1484 1483 1482 1482 1481 1481 1480 1480 1479 1479 1478 1477 1477 1476 1476 1475 1474 1474 1473 1473 1472 1471 1470 1469 1468 1467 1466
1480 1480 1481 1482 1482 1482 1482 1482 1482 1482 1482 1482 1482 1482 1481 1481 1481 1480 1480 1479 1478 1478 1477 1476 1475 1475 1474 1474 1473 1473 1472 1471 1471 1470 1469 1468 1468 1467 1466 1465 1464 1463 1462
1477 1478 1478 1479 1479 1479 1479 1478 1478 1478 1478 1478 1478 1478 1477 1477 1477 1476 1476 1476 1475 1475 1474 1473 1472 1471 1471 1470 1470 1469 1468 1467 1466 1466 1465 1464 1463 1462 1461 1460 1459 1459 1457
1476 1476 1476 1476 1476 1476 1476 1475 1475 1475 1475 1474 1474 1474 1473 1473 1473 1472 1472 1472 1471 1471 1470 1469 1468 1468 1467 1467 1466 1465 1464 1463 1462 1461 1460 1459 1458 1458 1457 1456 1455 1454 1452
1473 1473 1473 1473 1473 1473 1473 1473 1472 1472 1471 1471 1470 1470 1469 1469 1469 1469 1468 1467 1467 1467 1466 1466 1465 1464 1463 1463 1462 1461 1459 1458 1457 1456 1456 1455 1454 1453 1452 1451 1450 1449 1448
1471 1471 1471 1470 1470 1470 1469 1469 1469 1468 1468 1467 1467 1466 1466 1465 1465 1464 1464 1464 1463 1463 1463 1462 1461 1461 1460 1458 1457 1456 1455 1454 1453 1452 1451 1450 1449 1448 1447 1447 1446 1445 1444
1469 1468 1468 1468 1467 1467 1466 1466 1465 1465 1464 1464 1463 1463 1462 1462 1462 1461 1461 1460 1460 1459 1458 1458 1457 1456 1455 1454 1453 1452 1451 1450 1449 1447 1446 1445 1444 1443 1442 1442 1441 1440 1439
1467 1466 1465 1464 1463 1463 1463 1462 1462 1461 1461 1461 1460 1460 1459 1459 1458 1458 1458 1457 1456 1455 1454 1454 1453 1452 1451 1450 1449 1447 1446 1445 1444 1443 1441 1440 1440 1438 1438 1437 1436 1435 1434
1465 1464 1463 1461 1461 1460 1460 1460 1459 1459 1458 1458 1458 1457 1456 1456 1455 1455 1455 1454 1453 1451 1450 1450 1448 1447 1447 1446 1445 1443 1442 1441 1439 1438 1437 1435 1434 1433 1432 1432 1431 1430 1429
1463 1462 1461 1460 1459 1458 1458 1457 1457 1457 1457 1456 1455 1454 1453 1453 1453 1453 1452 1451 1450 1448 1447 1446 1445 1444 1444 1442 1441 1439 1438 1437 1435 1433 1432 1430 1429 1428 1428 1427 1426 1425 1424
1460 1460 1459 1458 1457 1457 1456 1455 1454 1454 1454 1454 1453 1452 1451 1450 1450 1449 1449 1447 1446 1445 1443 1443 1442 1441 1440 1438 1437 1435 1434 1432 1431 1429 1427 1426 1424 1423 1423 1422 1421 1420 1419
1458 1458 1457 1456 1455 1454 1454 1453 1452 1452 1451 1451 1451 1450 1450 1449 1447 1447 1445 1443 1443 1441 1440 1439 1438 1437 1436 1435 1433 1431 1430 1428 1426 1425 1423 1421 1420 1419 1418 1417 1416 1415 1414